Regional Weather Roundup
Issued by NWS Grand Forks, ND

Home | Current Version | Previous Version | Graphics & Text | Print | Product List | Glossary On
Versions: 1 2 3 4 5 6 7 8 9 10 11 12 13 14 15 16 17 18 19 20 21 22 23 24 25 26 27 28 29 30 31 32 33 34 35 36 37 38 39 40 41 42 43 44 45 46 47 48 49 50
000
ASUS43 KFGF 311431
RWRFGF
PRAIRIE TO PINES  WEATHER ROUNDUP
NATIONAL WEATHER SERVICE EASTERN NORTH DAKOTA/GRAND FORKS ND
900 AM CDT TUE MAY 31 2016

 **SATELLITE DATA USED TO AUGMENT SKY COVER AT AUTOMATED STATIONS**
 *****  WEATHER ACROSS EASTERN NORTH DAKOTA  *****

CITY           SKY/WX    TMP DP  RH WIND       PRES   REMARKS
GRAND FORKS    CLOUDY    62  57  83 S13       29.67F
GRAND FRKS AFB CLOUDY    63  59  88 SW12      29.68R
GRAND FRKS NWS   N/A     59 N/A N/A S15         N/A
DEVILS LAKE    CLOUDY    57  55  94 SW14      29.66S
FARGO          PTSUNNY   65  57  75 SW13G22   29.73S
WAHPETON ARPT  PTSUNNY   61  54  77 SW15      29.78S
$$

 ***** WEATHER ACROSS CENTRAL AND WESTERN NORTH DAKOTA  *****

CITY           SKY/WX    TMP DP  RH WIND       PRES   REMARKS
BISMARCK       PTSUNNY   53  46  77 W15G29    29.76F
MINOT          CLOUDY    56  49  77 SW12G23   29.61F
JAMESTOWN      PTSUNNY   56  50  80 W21G26    29.72S
MINOT AFB      DRIZZLE   52  49  89 NW28G33   29.58F
GARRISON         N/A     51  48  89 W16       29.69F
WILLISTON      LGT RAIN  54  50  86 N22G31    29.71S
DICKINSON      CLOUDY    50  46  86 W23G29    29.75F
HETTINGER      CLOUDY    50  43  77 W22       29.84F
$$

 *****  OTHER AIRPORT OBSERVATIONS IN OUR AREA  *****

CITY           SKY/WX    TMP DP  RH WIND       PRES   REMARKS
WALHALLA       FAIR      59  57  94 SE10      29.65S
GRAFTON AIRPOR CLOUDY    61  61 100 S12       29.68S
VALLEY CITY AR CLOUDY    57  57 100 SW15      29.75S
CANDO          CLOUDY    59  57  94 SW14      29.65S
CAVALIER APRT  CLOUDY    61  59  94 SE9       29.66S
GWINNER        FAIR      61  52  72 SW22      29.79R
SHEYENNE NWR     N/A     61  57  86 SW14      29.95
ROLLA          CLOUDY    54  54 100 E12       29.62F FOG
 ***** THE ABOVE OBSERVATIONS ARE NON NWS ARE NOT QUALITY
       CONTROLLED AND MAY MIS-REPORT RAIN FOR SNOW...
$$

  *****  WEATHER ACROSS NORTHERN MINNESOTA  *****

CITY           SKY/WX    TMP DP  RH WIND       PRES   REMARKS
FLAG ISLAND    LGT RAIN  52  48  87 E14G23    29.82F
WARROAD        LGT RAIN  52  46  82 SE20G28   29.80F
ROSEAU         CLOUDY    54  48  82 E14G20    29.77F
HALLOCK        CLOUDY    57  55  94 E15G21    29.69F FOG
THF RVR FALLS  CLOUDY    57  54  88 SE16      29.73S
BAUDETTE       CLOUDY    50  48  93 E17G29    29.82F
WASKISH        RAIN      50  48  93 E16G24    29.83S
CROOKSTON      CLOUDY    61  61 100 S14       29.71S
STEPHEN NDAWN    N/A     59  57  94 SE12        N/A
GREENBUSH NDAW   N/A     55  55 100 SE14        N/A
$$
  *****  WEATHER ACROSS CENTRAL AND WEST MINNESOTA  *****

CITY           SKY/WX    TMP DP  RH WIND       PRES   REMARKS
FOSSTON        DRIZZLE   55  55 100 SE10      29.75S
BEMIDJI        LGT RAIN  53  51  95 SE13G20   29.80F
PARK RAPIDS    CLOUDY    57  55  93 SE10      29.79F
ELBOW LAKE     CLOUDY    61  58  89 SW16      29.80S
WADENA         CLOUDY    61  59  94 S12       29.79S
DETROIT LAKES  LGT RAIN  59  57  94 SW8G22    29.78R
MOORHEAD       CLOUDY    61  57  88 SW12      29.75S
FERGUS FALLS   CLOUDY    63  61  94 W12       29.75S
MORRIS MN      CLOUDY    64  57  77 W15       29.81R
STAPLES        RAIN      61  59  94 SE8       29.81S
$$
  *****  WEATHER ELSEWHERE ACROSS MINNESOTA  *****

CITY           SKY/WX    TMP DP  RH WIND       PRES   REMARKS
DULUTH         CLOUDY    46  40  79 E18G29    29.96F
INTRNTL FALLS  RAIN      48  46  93 E13G22    29.92R FOG
ELY            CLOUDY    48  37  66 E10G18    29.98S
CLOQUET        DRIZZLE   46  43  87 E16G22    29.92F
WHEATON        MOSUNNY   64  57  77 SW17      29.82S
BRAINERD       RAIN      53  52  96 E9        29.84F FOG
HIBBING        LGT RAIN  48  44  86 E10       29.92F
ALEXANDRIA     CLOUDY    61  58  90 W10       29.82R
SAINT CLOUD    LGT RAIN  63  61  93 S12       29.84S
MINNEAPOLIS    LGT RAIN  64  61  90 SE9       29.87S
$$

  *****  WEATHER ACROSS SOUTH DAKOTA  *****

CITY           SKY/WX    TMP DP  RH WIND       PRES   REMARKS
SIOUX FALLS    MOSUNNY   61  55  81 NW12      29.92S
BROOKINGS      MOSUNNY   59  53  80 W17       29.88S
WATERTOWN      MOSUNNY   59  52  77 W17       29.86S
HURON          SUNNY     60  46  59 W18       29.90S
SISSETON         N/A     62  53  72 W17G26    29.80R
ABERDEEN       SUNNY     59  49  69 W16       29.84S
MITCHELL       SUNNY     61  51  70 W15       29.94S
PIERRE         SUNNY     57  42  57 W17G26    29.92F
MOBRIDGE       SUNNY     56  44  64 W15G23    29.82F
RAPID CITY     SUNNY     59  36  42 W20       29.98S
$$

  *****  SOME WEATHER IN NEARBY STATES *****

CITY           SKY/WX    TMP DP  RH WIND       PRES   REMARKS
GLASGOW MT     LGT RAIN  52  49  89 NW17G28   29.95R
GREAT FALLS MT SUNNY     47  37  68 NW14      30.25S
CHEYENNE WY    CLOUDY    47  31  53 CALM      30.17S
SCOTTSBLUFF NE CLOUDY    51  42  71 NW9       30.12S
OMAHA NE       CLOUDY    70  61  73 NW12      29.91R
DES MOINES IA  CLOUDY    71  61  70 S7        29.92F
DAVENPORT IA   MOSUNNY   74  65  73 S10       29.96F
CHICAGO IL     PTSUNNY   76  55  48 E10       30.01R
EAU CLAIRE WI  CLOUDY    67  58  72 S7        29.94R
LA CROSSE WI   CLOUDY    71  60  68 S10       29.94R
$$

  *****  SOME NATIONAL WEATHER *****

CITY           SKY/WX    TMP DP  RH WIND       PRES   REMARKS
LA GUARDIA NY  PTSUNNY   75  65  70 NE7       29.97R
RALEIGH NC     PTSUNNY   75  70  84 N6        29.99S
ATLANTA GA     PTSUNNY   80  64  58 E7        30.00R
NEW ORLEANS LA MOSUNNY   81  72  74 CALM      29.96R
OKLAHOMA CITY  PTSUNNY   69  62  78 N9        29.95F
ALBUQUERQUE NM PTSUNNY   66  40  38 SW8       30.04S
SALT LAKE CITY MOSUNNY   60  40  47 SE7       30.09R
LOS ANGELES CA CLOUDY    61  56  83 SE3       29.89R FOG
BOISE ID       SUNNY     53  37  54 SW6       30.13R
SEATTLE WA     PTSUNNY   57  47  69 NE6       30.14S
$$

*** WEATHER ACROSS MANITOBA...SASKATCHEWAN AND ONTARIO ***
                ***ONTARIO***

CITY           SKY/WX    TMP DP  RH WIND       PRES   REMARKS
GERALDTON      MOSUNNY   46  36  66 NE8       30.18F
THUNDER BAY    PTSUNNY   50  39  66 E14       30.14S
SIOUX LOOKOUT  CLOUDY    50  39  66 SE7G17    30.05F
TORONTO        MOSUNNY   75  48  38 W15       30.00S
BIG TROUT LK   CLOUDY    34  28  80 E6        30.29F
PICKLE LAKE    PTSUNNY   48  32  53 E8        30.17F
DRYDEN         LGT RAIN  46  43  87 E8        30.01S
KENORA         LGT RAIN  48  46  93 E21G29    29.91F FOG
$$
                *** MANITOBA***

CITY           SKY/WX    TMP DP  RH WIND       PRES   REMARKS
BRANDON        LGT RAIN  52  50  93 NE25G32   29.71F
DAUPHIN        LGT RAIN  54  48  82 NE15      29.87S
ISLAND LAKE    MOSUNNY   52  37  58 E6        30.17
PILOT MOUND      N/A     54  54 100 E12G18      N/A
THE PAS        PTSUNNY   54  41  62 NE6       30.09F
THOMPSON       MOSUNNY   43  32  65 E3        30.23F
WINNIPEG       LGT RAIN  54  50  87 E21G31    29.75F FOG
LYNN LAKE      CLOUDY    43  39  87 SE10      30.19F
CHURCHILL      PTSUNNY   32  25  74 S8        30.40F WCI  25
GILLAM         MOSUNNY   32  27  80 E7        30.33S
$$
                ***SASKATCHEWAN***

CITY           SKY/WX    TMP DP  RH WIND       PRES   REMARKS
ESTEVAN        SHOWER    52  52 100 N30G37    29.72R
KINDERSLEY     CLOUDY    52  48  87 N14       30.10R
LLOYDMINSTER   CLOUDY    52  48  87 N12       30.14R
PRINCE ALBERT  CLOUDY    54  48  82 NE9       30.07
REGINA         CLOUDY    52  50  93 N17G24    29.92S
YORKTON        CLOUDY    52  48  87 N15G23    29.90F
N. BATTLEFORD  CLOUDY    54  50  87 NW7       30.11R
LA RONGE       CLOUDY    52  50  93 SE7       30.12S
SASKATOON      PTSUNNY   54  50  87 N14       30.07R
SWIFT CURRENT  PTSUNNY   54  50  87 N16G23    30.05R
$$
NOTE: THESE ARE AUTOMATED STATIONS WITH LIMITED QUALITY CONTROL
      "FAIR" INDICATES FEW OR NO CLOUDS BELOW 12,000 FEET WITH NO
      SIGNIFICANT WEATHER AND/OR OBSTRUCTIONS TO VISIBILITY.
      SKY/WX - SKY CONDITION AND SIGNIFICANT WEATHER.
      TMP - AIR TEMPERATURE.    DP   - DEWPOINT TEMPERATURE.
      RH  - RELATIVE HUMIDITY.  PRES - PRESSURE.
      HX  - HEAT INDEX.         WCI  - WIND CHILL INDEX.
$




USA.gov is the U.S. government's official web portal to all federal, state and local government web resources and services.